This is the latest recevied weather packets stored in our database for station/object IZ1UQG-N2. If no packets are shown the sender has not sent any weather packets the latest 10 day(s).
| Time | Temp. | Humidity | Pressure | Rain* | Wind** | Luminosity | Snow |
|---|---|---|---|---|---|---|---|
| 1787748559 | 28.33° C | 61% | 1014.3 hPa | 0 mm | - | 531 W/m² | - |
| 1787748499 | 28.33° C | 61% | 1014.3 hPa | 0 mm | - | 478 W/m² | - |
| 1787748441 | 28.33° C | 61% | 1014.3 hPa | 0 mm | - | 438 W/m² | - |
| 1787748381 | 28.33° C | 62% | 1014.2 hPa | 0 mm | - | 448 W/m² | - |
| 1787748321 | 28.33° C | 62% | 1014.5 hPa | 0 mm | - | 436 W/m² | - |
| 1787748260 | 28.33° C | 63% | 1014.4 hPa | 0 mm | - | 376 W/m² | - |
| 1787748201 | 27.78° C | 63% | 1014.4 hPa | 0 mm | - | 497 W/m² | - |
| 1787748141 | 27.78° C | 62% | 1014.4 hPa | 0 mm | - | 462 W/m² | - |
| 1787748081 | 27.78° C | 63% | 1014.3 hPa | 0 mm | - | 645 W/m² | - |
| 1787748020 | 27.78° C | 63% | 1014.3 hPa | 0 mm | - | 612 W/m² | - |
| 1787747960 | 27.78° C | 62% | 1014.3 hPa | 0 mm | - | 563 W/m² | - |
| 1787747901 | 27.78° C | 62% | 1014.3 hPa | 0 mm | - | 582 W/m² | - |
| 1787747840 | 27.78° C | 63% | 1014.3 hPa | 0 mm | - | 598 W/m² | - |
| 1787747780 | 27.78° C | 63% | 1014.4 hPa | 0 mm | - | 536 W/m² | - |
| 1787747720 | 27.78° C | 64% | 1014.4 hPa | 0 mm | - | 417 W/m² | - |
| 1787747661 | 27.22° C | 64% | 1014.3 hPa | 0 mm | - | 427 W/m² | - |
| 1787747601 | 27.22° C | 65% | 1014.3 hPa | 0 mm | - | 367 W/m² | - |
| 1787747540 | 27.22° C | 66% | 1014.3 hPa | 0 mm | - | 547 W/m² | - |
| 1787747480 | 27.22° C | 66% | 1014.3 hPa | 0 mm | - | 408 W/m² | - |
| 1787747420 | 27.22° C | 66% | 1014.3 hPa | 0 mm | - | 346 W/m² | - |
| 1787747360 | 26.67° C | 66% | 1014.3 hPa | 0 mm | - | 666 W/m² | - |
| 1787747301 | 26.67° C | 66% | 1014.3 hPa | 0 mm | - | 642 W/m² | - |
| 1787747241 | 27.22° C | 65% | 1014.3 hPa | 0 mm | - | 701 W/m² | - |
| 1787747180 | 27.22° C | 65% | 1014.2 hPa | 0 mm | - | 664 W/m² | - |
| 1787747120 | 27.22° C | 65% | 1014.3 hPa | 0 mm | - | 461 W/m² | - |
* Rain latest hour (hover to see other rain measurements)
** Current wind speed in m/s (hover to see current wind gust speed)